GFSNIL_con_3kmhel_153.txt.gz
Helicity
112 84 41 17 -2 8 -0 16 28 14 46 5 -18 11 37 38 43 40 27 31 36 40
115 94 38 24 13 8 14 18 25 28 49 38 -8 -7 16 30 43 40 49 23 33 28
112 77 39 26 22 25 15 19 34 36 34 40 21 -21 -16 -7 20 34 56 47 37 37
113 84 53 37 27 24 13 22 35 33 32 39 23 18 5 -36 -47 -20 37 67 48 46
127 95 65 54 34 31 35 24 25 19 30 31 28 27 24 -6 -36 -54 -22 15 52 69
143 110 75 58 40 41 28 31 21 28 21 28 23 18 28 37 -25 -54 -41 -39 -16 39
139 115 84 45 49 45 32 29 29 36 19 34 33 21 10 13 19 -0 -39 -45 -43 -55
131 116 68 47 64 54 46 38 29 52 37 35 37 26 19 15 4 -6 -30 -40 -59 -56
144 111 77 85 79 58 46 62 61 68 50 38 32 54 45 23 18 5 -5 -21 -31 -43
136 107 104 100 87 79 69 65 70 66 47 42 22 61 47 38 14 27 19 9 -1 -12
118 107 106 100 73 64 73 85 63 58 40 24 37 57 51 47 29 7 8 5 10 -5
103 102 93 74 52 43 71 92 86 72 72 40 19 69 54 33 25 30 36 35 2 -3
103 89 67 65 45 43 58 75 78 93 89 91 57 63 63 46 8 40 14 16 22 81
99 92 83 78 73 63 55 66 75 91 90 93 94 54 56 65 22 11 24 29 16 8

GFSNIL_con_3kmhel_159.txt.gz
Helicity
96 94 95 97 88 74 76 67 65 53 45 26 21 17 16 17 26 14 4 0 27 31
100 97 108 101 85 87 91 71 69 55 41 19 20 15 9 31 27 23 11 -13 0 6
101 124 122 100 104 108 100 79 74 57 40 21 24 20 15 23 29 24 4 -25 -17 -15
137 146 120 112 113 111 100 84 77 61 39 27 27 18 19 23 26 25 12 -13 -42 -32
159 139 128 124 117 111 102 77 72 60 49 35 27 22 22 24 27 26 10 -12 -29 -39
159 144 136 124 121 113 87 66 66 60 60 50 40 28 18 14 18 20 16 10 -28 -37
162 144 132 132 123 100 76 69 67 61 54 49 49 40 18 14 17 14 11 -4 6 -22
167 152 145 139 122 114 88 78 72 70 59 52 55 45 30 24 18 24 10 3 -6 -5
178 167 152 153 150 121 109 97 84 81 75 64 51 64 71 36 31 39 27 15 5 -1
182 180 182 182 168 132 110 92 88 83 80 67 58 64 65 56 33 44 43 41 16 16
203 217 213 204 173 135 108 105 91 87 77 65 61 62 62 59 37 38 48 55 39 35
217 226 206 191 162 136 121 112 103 94 84 69 65 65 60 48 41 44 57 47 47 46
198 190 181 163 141 121 110 117 102 100 90 87 62 78 67 47 44 45 37 43 46 74
170 168 159 150 133 118 117 125 108 104 96 91 73 69 88 77 56 42 42 47 47 45

GFSNIL_con_3kmhel_165.txt.gz
Helicity
134 75 108 85 110 97 105 114 96 88 97 96 91 80 64 61 55 45 43 33 25 25
95 119 97 110 94 108 119 103 97 108 106 106 93 75 57 64 61 39 32 39 24 31
128 127 127 74 112 116 116 110 118 113 121 111 89 81 73 66 64 41 28 28 29 26
172 154 108 99 106 111 113 126 119 121 124 114 96 86 77 73 61 47 37 31 33 31
189 152 118 105 108 147 137 125 125 133 135 120 97 83 80 71 57 53 44 37 45 36
204 155 130 121 164 135 124 121 137 149 142 120 102 88 72 62 58 52 42 39 48 43
206 204 151 153 136 122 123 137 145 135 130 114 107 84 70 64 60 56 51 37 51 43
239 200 168 141 127 146 157 155 140 135 127 115 107 100 75 71 71 67 58 53 56 44
272 219 178 133 161 175 177 199 203 174 157 140 118 125 126 95 89 88 74 65 63 56
277 245 184 155 216 245 242 204 215 192 152 144 128 125 130 121 107 103 97 89 76 62
286 251 215 280 264 218 216 210 172 149 131 129 119 128 127 128 113 117 116 105 98 92
292 278 260 243 227 229 216 184 174 140 129 119 121 114 93 86 101 103 108 124 130 111
242 239 237 239 241 219 190 177 153 135 119 121 125 108 89 102 91 80 99 102 110 134
211 221 220 235 206 183 163 152 138 139 123 115 117 125 127 121 107 93 103 101 102 107

GFSNIL_con_3kmhel_168.txt.gz
Helicity
348 265 164 161 146 123 134 156 123 112 106 103 106 81 59 96 72 64 57 64 33 16
326 269 215 181 157 157 162 136 119 112 114 111 97 95 83 95 72 62 56 53 31 19
312 245 177 121 151 151 179 151 114 126 124 105 117 108 102 99 76 73 59 52 39 23
280 212 164 190 163 182 122 115 120 110 112 128 118 101 102 87 86 77 73 63 54 35
264 207 155 169 171 117 121 121 120 125 142 126 109 107 107 104 85 83 82 69 61 49
186 144 192 195 154 133 144 134 140 163 150 129 118 122 104 92 86 83 75 64 58 55
162 143 218 184 156 130 124 143 164 144 131 134 150 128 113 102 87 73 63 59 59 49
210 290 241 205 161 140 161 163 130 113 122 150 160 149 139 124 107 97 84 81 67 58
265 277 275 200 198 217 219 235 173 231 269 227 154 176 213 135 144 146 116 94 83 70
336 309 257 235 287 278 239 228 305 284 250 197 164 186 183 159 140 140 134 126 103 83
317 305 330 348 318 288 231 223 244 211 178 182 165 165 163 150 127 137 143 128 97 87
242 316 342 333 303 245 224 202 199 173 165 165 140 126 121 108 105 113 112 103 107 114
269 309 318 310 272 240 225 246 227 193 167 146 139 111 100 112 89 83 89 72 113 152
214 299 303 270 245 233 227 232 217 189 157 137 134 113 108 134 127 93 88 100 122 113

GFSNIL_con_3kmhel_171.txt.gz
Helicity
377 304 258 239 183 167 138 108 105 105 110 128 120 122 108 109 102 89 67 60 49 28
387 335 291 269 254 220 152 125 104 106 135 134 119 139 126 120 120 107 74 62 52 28
419 361 313 301 268 222 148 112 136 130 144 125 133 151 134 135 120 118 79 74 63 37
424 360 325 293 243 189 154 106 141 153 124 120 132 139 144 130 122 109 93 79 62 52
428 335 298 239 177 144 79 150 162 132 130 127 134 145 145 134 110 98 96 88 78 74
380 290 244 185 149 104 151 191 164 148 142 138 135 140 130 115 105 92 87 82 81 76
309 246 196 164 147 114 149 167 166 167 164 161 166 144 109 101 93 84 89 72 71 68
363 303 179 136 137 111 135 130 146 166 183 193 193 157 127 117 97 111 96 86 75 71
327 241 100 108 134 155 174 144 160 203 218 201 167 154 172 178 194 176 132 121 112 106
292 169 147 117 191 243 258 260 308 306 235 190 169 177 175 183 177 182 160 133 120 104
345 209 147 199 304 294 288 320 318 286 226 191 161 171 170 185 179 183 160 139 131 115
378 148 194 298 335 285 308 298 289 248 217 188 163 164 145 151 158 159 150 127 122 114
190 202 296 325 291 273 275 262 265 219 188 148 130 128 134 107 119 141 136 141 130 132
257 314 329 323 253 272 263 258 263 227 167 159 136 120 121 115 85 110 114 118 113 117

GFSNIL_con_3kmhel_174.txt.gz
Helicity
527 481 337 290 223 210 193 168 144 126 134 108 128 131 142 116 78 85 72 74 68 63
455 512 417 334 219 207 215 150 126 115 119 101 82 146 160 127 99 97 69 78 82 71
428 364 417 310 275 222 186 149 126 128 91 34 190 166 145 132 112 107 93 89 97 75
459 537 465 408 272 230 193 168 129 89 0 186 160 137 147 137 124 132 116 106 90 69
678 468 395 319 247 221 212 166 156 10 163 171 156 134 128 122 118 123 127 106 92 69
609 543 431 330 267 232 228 157 109 117 172 166 143 132 126 130 124 127 117 103 93 62
540 475 405 327 276 274 201 155 8 129 175 147 137 126 129 131 136 132 110 95 78 50
515 448 392 343 259 197 159 178 151 171 162 162 153 118 129 134 134 128 119 89 66 53
520 462 400 360 184 206 161 121 138 115 148 171 162 146 150 145 143 129 119 103 94 93
461 488 396 264 212 104 132 131 151 163 164 174 183 191 188 176 169 156 121 105 90 92
436 499 349 270 194 273 228 173 152 168 155 186 187 196 190 199 196 173 144 124 104 112
466 535 269 207 209 149 182 179 175 153 156 193 192 180 192 204 192 178 141 118 113 119
459 428 305 232 188 181 204 195 187 158 148 166 187 160 155 165 164 161 135 116 118 122
430 434 404 244 212 223 212 203 191 184 172 190 186 157 132 134 125 132 139 122 119 113